This is the latest recevied weather packets stored in our database for station/object SQ3VAS-10. If no packets are shown the sender has not sent any weather packets the latest 10 day(s).
| Time | Temp. | Humidity | Pressure | Rain* | Wind** | Luminosity | Snow |
|---|---|---|---|---|---|---|---|
| 1778308302 | 11.11° C | 70% | 1023 hPa | - | - | - | - |
| 1778307729 | 10.56° C | 74% | 1022.9 hPa | - | - | - | - |
| 1778307155 | 9.44° C | 77% | 1022.9 hPa | - | - | - | - |
| 1778306583 | 8.89° C | 80% | 1022.9 hPa | - | - | - | - |
| 1778306010 | 8.89° C | 80% | 1022.9 hPa | - | - | - | - |
| 1778305438 | 8.33° C | 81% | 1022.8 hPa | - | - | - | - |
| 1778304866 | 7.78° C | 80% | 1022.8 hPa | - | - | - | - |
| 1778304292 | 7.78° C | 83% | 1022.8 hPa | - | - | - | - |
| 1778303720 | 6.67° C | 86% | 1022.8 hPa | - | - | - | - |
| 1778303147 | 6.11° C | 86% | 1022.7 hPa | - | - | - | - |
| 1778302575 | 6.11° C | 85% | 1022.7 hPa | - | - | - | - |
| 1778302003 | 5.56° C | 87% | 1022.7 hPa | - | - | - | - |
| 1778301431 | 5.56° C | 86% | 1022.7 hPa | - | - | - | - |
| 1778300859 | 5° C | 86% | 1022.8 hPa | - | - | - | - |
| 1778300287 | 5° C | 86% | 1022.8 hPa | - | - | - | - |
| 1778299716 | 5° C | 85% | 1022.8 hPa | - | - | - | - |
| 1778299144 | 5° C | 86% | 1022.8 hPa | - | - | - | - |
| 1778298572 | 4.44° C | 84% | 1022.7 hPa | - | - | - | - |
| 1778298001 | 4.44° C | 86% | 1022.8 hPa | - | - | - | - |
| 1778297429 | 4.44° C | 86% | 1022.8 hPa | - | - | - | - |
| 1778296858 | 4.44° C | 83% | 1022.8 hPa | - | - | - | - |
| 1778296286 | 4.44° C | 84% | 1022.9 hPa | - | - | - | - |
| 1778295715 | 5° C | 84% | 1022.8 hPa | - | - | - | - |
| 1778295143 | 5° C | 84% | 1022.6 hPa | - | - | - | - |
| 1778294571 | 5° C | 84% | 1022.6 hPa | - | - | - | - |
* Rain since midnight (hover to see other rain measurements)
** Current wind speed in m/s (hover to see current wind gust speed)